Location: Celina Division
(33.3022°N, 96.7580°W)
Time: 02:14:52
(UTC+00:00)

Nadezhda 4 Rocket - Pass Details

Date: 06 July 2022
Orbit: 950 x 991 km, 82.9° (Epoch: 17 August)

Event Time Altitude Azimuth Distance (km) Brightness Sun altitude
Rises 10:17:56 0° 145° (SE) 3,646 7.0 -12.3°
Reaches altitude 10° 10:21:09 10° 129° (SE) 2,696 6.5 -11.8°
Maximum altitude 10:25:22 20° 85° (E) 2,081 6.6 -11.1°
Drops below altitude 10° 10:29:34 10° 41° (NE) 2,689 7.8 -10.4°
Sets 10:32:45 0° 25° (NNE) 3,633 8.2 -9.9°
